Hourly Data Report for October 11, 2013

All times are specified in Local Standard Time (LST). Add 1 hour to adjust for Daylight Saving Time where and when it is observed.

FREDERICTON
NEW BRUNSWICK

45°52'08.000" N
66°32'14.000" W
20.70 m
8101505
71700
YFC

Download Data

Hourly Data (October 2013)
Hourly Data Report for October 11, 2013
Temp Definition
°C
Dew Point Temp Definition
°C
Rel Hum Definition
%
Wind Dir Definition
10's deg

Wind Spd Definition
km/h
Visibility Definition
km
Stn Press Definition
kPa
Hmdx Definition


Wind Chill Definition


Weather Definition


TIME
00:00 Legend Double Dagger 7.7 6.8 94 21 9 16.1 101.88     LegendNANA
01:00 Legend Double Dagger 7.2 6.5 95 23 8 16.1 101.86     LegendNANA
02:00 Legend Double Dagger 5.8 5.4 97   0 16.1 101.86     LegendNANA
03:00 Legend Double Dagger 4.7 4.3 97 22 5 16.1 101.83     LegendNANA
04:00 Legend Double Dagger 4.0 3.4 96 24 4 16.1 101.85     LegendNANA
05:00 Legend Double Dagger 4.1 3.8 98 19 8 16.1 101.86     LegendNANA
06:00 Legend Double Dagger 3.5 3.4 99   0 8.1 101.91     LegendNANA
07:00 Legend Double Dagger 2.9 2.6 98   0 16.1 101.93     LegendNANA
08:00 Legend Double Dagger 7.4 6.2 92 31 5 16.1 101.97     LegendNANA
09:00 Legend Double Dagger 11.3 8.2 81 32 5 16.1 101.95     LegendNANA
10:00 Legend Double Dagger 13.9 9.1 73 LegendMM 4 16.1 101.94     LegendNANA
11:00 Legend Double Dagger 16.5 10.3 67 LegendMM 5 16.1 101.89     LegendNANA
12:00 Legend Double Dagger 18.5 10.9 61 LegendMM 4 16.1 101.86     LegendNANA
13:00 Legend Double Dagger 20.4 11.8 58 LegendMM 4 16.1 101.79     LegendNANA
14:00 Legend Double Dagger 21.4 11.5 53 9 8 16.1 101.77     LegendNANA
15:00 Legend Double Dagger 22.1 11.8 52 8 9 16.1 101.76     LegendNANA
16:00 Legend Double Dagger 20.9 12.3 57 7 9 16.1 101.77     LegendNANA
17:00 Legend Double Dagger 19.0 11.9 63 6 18 1.6 101.83     LegendNANA
18:00 Legend Double Dagger 17.2 11.8 70 5 26 16.1 101.92     LegendNANA
19:00 Legend Double Dagger 14.4 10.7 78 4 18 16.1 102.04     LegendNANA
20:00 Legend Double Dagger 12.7 9.9 83 4 17 16.1 102.12     LegendNANA
21:00 Legend Double Dagger 11.8 9.4 85 4 15 16.1 102.18     LegendNANA
22:00 Legend Double Dagger 11.3 9.0 86 4 15 16.1 102.24     LegendNANA
23:00 Legend Double Dagger 11.2 9.0 86 3 15 16.1 102.28     LegendNANA

Notes on Data Quality.

Legend

  • E = Estimated
  • M = Missing
  • NA = Not Available
  • ‡ = Partner data that is not subject to review by the National Climate Archives
Date modified: